Flag for U.S.A. Weather past 2 weeks in Port St. Lucie, Florida, U.S.A.

Now
75 °F

Thundershowers. Partly cloudy.


Feels Like: 76 °F
Forecast: 70 / 84 °F
Wind: 14 mph from Southwest

Location: Witham Field Airport

Current Time: Apr 19, 2015 at 9:46:54 PM

Latest Report: Apr 19, 2015 at 9:15 PM


Visibility: 10 mi

Pressure: 29.92 "Hg

Humidity: 78%

Dew point: 68 °F

Location of Port St. LucieLocation

Historic Weather in Port St. Lucie — Graph

°F

Port St. Lucie temperature yesterday

Maximum temperature yesterday: 90 °F (at 4:47 PM)
Minimum temperature yesterday: 72 °F (at 2:15 AM)
Average temperature yesterday: 75 °F

Past Weeks' High & Low Weather Summary

 TemperatureHumidityPressure
High90 °F (Apr 18, 4:47 PM)100% (Apr 15, 6:15 AM)30.20 "Hg (Apr 15, 6:15 AM)
Low64 °F (Apr 5, 4:15 AM)25% (Apr 15, 7:55 AM)29.87 "Hg (Apr 19, 6:47 PM)
Average74 °F80%30.10 "Hg
* Reported Apr 4 8:15 PM — Apr 19 8:55 PM, Port St. Lucie, Weather by CustomWeather, © 2015

Note: Actual official high and low records may vary slightly from our data, if they occured in-between our weather recording intervals... More about our weather records

Advertising

Port St. Lucie weather history for previous 24 hours

 ConditionsComfort  
Time TempWeatherWind HumidityBarometerVisibility
8:55 PM
Sun, Apr 19
79 °FPartly cloudy.13 mph70%29.93 "Hg10 mi
8:15 PM81 °FThundershowers. Partly sunny.5 mph66%29.89 "Hg10 mi
7:55 PM81 °FThundershowers. Scattered clouds.7 mph62%29.87 "Hg10 mi
7:35 PM81 °FScattered clouds.10 mph66%29.87 "Hg10 mi
7:15 PM82 °FScattered clouds.9 mph62%29.87 "Hg10 mi
6:47 PM84 °FScattered clouds.12 mph62%29.87 "Hg7 mi
4:47 PM90 °FScattered showers. Broken clouds.9 mph43%29.88 "Hg7 mi
3:55 PM90 °FScattered showers. Partly sunny.9 mph43%29.89 "Hg7 mi
9:47 AM79 °FSunny.6 mph79%29.98 "Hg4 mi
8:47 AM75 °FSunny.6 mph89%29.99 "Hg6 mi
7:50 AM72 °FFog.6 mph100%29.99 "Hg7 mi
6:50 AM72 °FFog.6 mph94%29.96 "Hg7 mi
6:15 AM72 °FClear.No wind94%29.95 "Hg10 mi
5:55 AM72 °FClear.3 mph94%29.95 "Hg10 mi
5:35 AM72 °FClear.No wind94%29.94 "Hg10 mi
5:15 AM72 °FClear.No wind94%29.94 "Hg10 mi
4:55 AM72 °FClear.No wind94%29.94 "Hg10 mi
4:35 AM72 °FClear.No wind94%29.94 "Hg10 mi
4:15 AM72 °FClear.No wind94%29.94 "Hg10 mi
3:55 AM72 °FClear.5 mph94%29.94 "Hg10 mi
3:35 AM72 °FClear.3 mph94%29.94 "Hg10 mi
3:15 AM72 °FClear.3 mph94%29.94 "Hg10 mi
2:55 AM72 °FClear.5 mph94%29.95 "Hg10 mi
2:35 AM73 °FClear.5 mph89%29.95 "Hg10 mi
2:15 AM73 °FClear.5 mph89%29.95 "Hg10 mi
1:55 AM73 °FClear.No wind89%29.96 "Hg10 mi
1:35 AM73 °FClear.No wind89%29.97 "Hg10 mi
1:15 AM73 °FClear.No wind89%29.98 "Hg10 mi
12:55 AM73 °FClear.3 mph89%29.99 "Hg10 mi
12:35 AM73 °FClear.No wind89%29.99 "Hg10 mi
12:15 AM73 °FClear.No wind94%29.99 "Hg10 mi
11:55 PM
Sat, Apr 18
73 °FClear.No wind89%30.00 "Hg10 mi
11:35 PM73 °FClear.No wind94%30.00 "Hg10 mi
11:15 PM73 °FPassing clouds.No wind94%30.00 "Hg10 mi
10:55 PM73 °FThundershowers. Passing clouds.No wind89%30.01 "Hg10 mi
10:35 PM73 °FPassing clouds.No wind89%30.01 "Hg10 mi
10:15 PM73 °FOvercast.3 mph89%30.00 "Hg10 mi
9:55 PM73 °FThundershowers. Passing clouds.7 mph89%29.99 "Hg10 mi
9:35 PM73 °FPassing clouds.6 mph89%29.99 "Hg10 mi
Weather by CustomWeather, © 2015

See weather overviewHow to use our weather pages